BUCHAREST/BANEASA current weather conditions

sailwx.info

Wind from 260 at 13 knots

Air temperature 6.0° C
Visibility: greater than 5.4 NM
Dewpoint -2.0° C

Last reported at 2020-Jan-22 14:00 UTC.
Time now 2020-Jan-22 14:44 UTC

Location: N 44°30' E 026°05'.
View on Google Maps.

See reports from other nearby stations

  
Tides and Currents Weather Stations Pressure Air Temp Water Temp Dewpoint Dewpoint Depression Visibility Wind Speed Wind Dir Waves Ship Positions
date/time (UTC)wind fromknots sea level pressurealtimeterstation pressurevisibilityair tempwater tempwave heightnotes
2020-Jan-22 14:00 260 13 5.4 6.0
2020-Jan-22 13:30 260 14 5.4 7.0
2020-Jan-22 13:00 250 12 5.4 6.0
2020-Jan-22 12:30 250 13 5.4 6.0
2020-Jan-22 12:00 240 13 5.4 6.0
2020-Jan-22 11:30 250 11 5.4 6.0
2020-Jan-22 11:00 240 12 5.4 5.0
2020-Jan-22 10:30 250 8 5.4 5.0
2020-Jan-22 10:00 250 8 5.4 4.0
2020-Jan-22 09:30 250 8 5.4 3.0
2020-Jan-22 09:00 260 11 5.4 2.0
2020-Jan-22 08:30 260 9 5.4 1.0
2020-Jan-22 08:00 260 12 5.4-1.0
2020-Jan-22 07:30 260 9 5.4-2.0
2020-Jan-22 07:00 270 7 5.4-3.0
2020-Jan-22 06:30 260 6 5.4-3.0
2020-Jan-22 06:00 250 8 4.3-3.0
2020-Jan-22 05:30 260 8 4.9-4.0
2020-Jan-22 05:00 260 6 3.2-4.0
2020-Jan-22 04:30 270 6 3.8-4.0
2020-Jan-22 04:00 260 6 3.8-4.0 Mist.
2020-Jan-22 03:30 270 4 3.8-4.0
2020-Jan-22 03:00 270 4 3.8-4.0
2020-Jan-22 02:30 270 6 3.2-3.0
2020-Jan-22 02:00 270 5 3.2-3.0
2020-Jan-22 01:30 260 5 3.2-3.0
2020-Jan-22 01:00 260 2 3.8-4.0
2020-Jan-22 00:30 3.8-3.0
2020-Jan-22 00:00 280 5 3.8-3.0
2020-Jan-21 23:30 260 6 3.8-3.0
2020-Jan-21 23:00 270 5 3.2-2.0
2020-Jan-21 22:30 270 5 2.7-2.0 Mist.
2020-Jan-21 22:00 270 4 2.7-2.0 Mist.
2020-Jan-21 21:30 260 4 2.7-1.0 Mist.
2020-Jan-21 21:00 280 5 2.7-1.0 Mist.
2020-Jan-21 20:30 270 5 2.7-1.0 Mist.
2020-Jan-21 20:00 280 4 3.8-1.0
2020-Jan-21 19:30 3.8-0.0
2020-Jan-21 19:00 290 2 3.8-0.0
2020-Jan-21 18:30 280 4 4.3-0.0
2020-Jan-21 18:00 270 4 3.8 1.0
2020-Jan-21 17:30 270 5 4.3 1.0
2020-Jan-21 17:00 270 6 3.2 2.0
2020-Jan-21 16:30 270 6 3.8 2.0
2020-Jan-21 16:00 260 6 4.3 3.0
2020-Jan-21 15:30 260 6 5.4 4.0
2020-Jan-21 15:00 270 6 5.4 5.0
2020-Jan-21 14:30 290 6 5.4 5.0
2020-Jan-21 14:00 280 6 5.4 6.0
2020-Jan-21 13:30 270 7 5.4 5.0
2020-Jan-21 13:00 270 8 5.4 5.0
2020-Jan-21 12:30 280 7 5.4 4.0
2020-Jan-21 12:00 270 7 5.4 4.0
2020-Jan-21 11:30 270 6 3.8 3.0
2020-Jan-21 11:00 280 5 3.8 3.0
2020-Jan-21 10:30 290 5 3.8 2.0
2020-Jan-21 10:00 270 6 3.8 1.0 Mist.
2020-Jan-21 09:30 240 5 3.8-0.0 Mist.
2020-Jan-21 09:00 230 4 2.7-0.0 Mist.
2020-Jan-21 08:30 2.7-1.0 Mist.
2020-Jan-21 08:00 2.7-2.0 Mist.
2020-Jan-21 07:30 2.3-2.0 Mist.
2020-Jan-21 07:00 220 0 2.7-4.0 Mist.
2020-Jan-21 06:30 090 0 1.6-5.0 Mist.
2020-Jan-21 06:00 140 0 1.6-5.0 Mist.
2020-Jan-21 05:30 1.6-6.0 Mist.
2020-Jan-21 05:00 010 0 2.2-5.0 Mist.
2020-Jan-21 04:30 3.2-6.0
2020-Jan-21 04:00 300 2 3.2-4.0
2020-Jan-21 03:30 290 0 3.2-4.0
2020-Jan-21 03:00 290 1 4.3-4.0 Mist.
2020-Jan-21 02:30 240 1 3.2-3.0 Mist.
2020-Jan-21 02:00 4.3-3.0
2020-Jan-21 01:30 4.3-1.0
2020-Jan-21 01:00 140 2 4.3-1.0
2020-Jan-21 00:30 140 4 4.3-1.0
2020-Jan-21 00:00 150 5 4.3-1.0
2020-Jan-20 23:30 130 1 4.3-2.0
2020-Jan-20 23:00 140 2 4.3-1.0
2020-Jan-20 22:30 120 2 4.3-1.0
2020-Jan-20 22:00 110 4 4.3-2.0
2020-Jan-20 21:30 110 4 4.3-1.0
2020-Jan-20 21:00 120 5 4.3-1.0
2020-Jan-20 20:30 110 6 4.3-1.0
2020-Jan-20 20:00 110 4 4.3-1.0
2020-Jan-20 19:30 090 4 4.3-1.0
2020-Jan-20 19:00 080 6 4.3-1.0
2020-Jan-20 18:30 080 6 4.3-0.0
2020-Jan-20 18:00 5.4 1.0
2020-Jan-20 17:30 5.4 2.0
2020-Jan-20 17:00 5.4 3.0
2020-Jan-20 16:30 5.4 3.0
2020-Jan-20 16:00 5.4 3.0
2020-Jan-20 15:30 250 1 5.4 4.0
2020-Jan-20 15:00 260 2 5.4 4.0
2020-Jan-20 14:30 260 6 5.4 5.0
2020-Jan-20 14:00 270 6 5.4 5.0